Time,TemperatureF,DewpointF,PressureIn,WindDirection,WindDirectionDegrees,WindSpeedMPH,WindSpeedGustMPH,Humidity,HourlyPrecipIn,Conditions,Clouds,dailyrainin,SolarRadiationWatts/m^2,SoftwareType,DateUTC
2013-10-20 00:01:00,57.2,54.0,29.75,NNW,345,0.0,0.0,89,0.00,,,0.00,0,LWC V2.00 B2112,2013-10-20 04:01:00,
2013-10-20 00:06:00,57.1,53.9,29.75,NNW,345,0.0,0.0,89,0.00,,,0.00,0,LWC V2.00 B2112,2013-10-20 04:06:00,
2013-10-20 00:11:00,57.0,53.8,29.75,NNW,345,0.0,0.0,89,0.00,,,0.00,0,LWC V2.00 B2112,2013-10-20 04:11:00,
2013-10-20 00:16:00,56.8,53.6,29.75,NNW,345,0.0,0.0,89,0.00,,,0.00,0,LWC V2.00 B2112,2013-10-20 04:16:00,
2013-10-20 00:21:00,56.6,53.4,29.75,NNW,345,0.0,0.0,89,0.00,,,0.00,0,LWC V2.00 B2112,2013-10-20 04:21:00,
2013-10-20 00:26:00,56.4,53.5,29.75,NNW,346,0.0,0.0,90,0.00,,,0.00,0,LWC V2.00 B2112,2013-10-20 04:26:00,
2013-10-20 00:31:00,56.3,53.4,29.75,NNW,345,0.0,0.0,90,0.00,,,0.00,0,LWC V2.00 B2112,2013-10-20 04:31:00,
2013-10-20 00:36:00,56.1,53.2,29.75,NNW,345,0.0,0.0,90,0.00,,,0.00,0,LWC V2.00 B2112,2013-10-20 04:36:00,
2013-10-20 00:41:00,56.0,53.4,29.75,NNW,345,0.0,0.0,91,0.00,,,0.00,0,LWC V2.00 B2112,2013-10-20 04:41:00,
2013-10-20 00:46:00,55.9,53.3,29.75,NNW,345,0.0,0.0,91,0.00,,,0.00,0,LWC V2.00 B2112,2013-10-20 04:46:00,
2013-10-20 00:51:00,55.7,53.1,29.75,NNW,346,0.0,0.0,91,0.00,,,0.00,0,LWC V2.00 B2112,2013-10-20 04:51:00,
2013-10-20 00:56:00,55.6,53.0,29.75,NNW,346,0.0,0.0,91,0.00,,,0.00,0,LWC V2.00 B2112,2013-10-20 04:56:00,
2013-10-20 01:01:00,55.4,52.8,29.75,NNW,345,0.0,0.0,91,0.00,,,0.00,0,LWC V2.00 B2112,2013-10-20 05:01:00,
2013-10-20 01:06:00,55.3,52.7,29.75,NNW,345,0.0,0.0,91,0.00,,,0.00,0,LWC V2.00 B2112,2013-10-20 05:06:00,
2013-10-20 01:11:00,55.1,52.5,29.76,NNW,345,0.0,0.0,91,0.00,,,0.00,0,LWC V2.00 B2112,2013-10-20 05:11:00,
2013-10-20 01:16:00,55.0,52.4,29.76,NNW,345,0.0,0.0,91,0.00,,,0.00,0,LWC V2.00 B2112,2013-10-20 05:16:00,
2013-10-20 01:21:00,54.9,52.3,29.76,NNW,345,0.0,0.0,91,0.00,,,0.00,0,LWC V2.00 B2112,2013-10-20 05:21:00,
2013-10-20 01:26:00,54.7,52.1,29.76,NNW,346,0.0,0.0,91,0.00,,,0.00,0,LWC V2.00 B2112,2013-10-20 05:26:00,
2013-10-20 01:31:00,54.5,51.9,29.76,NNW,346,0.0,0.0,91,0.00,,,0.00,0,LWC V2.00 B2112,2013-10-20 05:31:00,
2013-10-20 01:36:00,54.4,51.8,29.76,NNW,345,0.0,0.0,91,0.00,,,0.00,0,LWC V2.00 B2112,2013-10-20 05:36:00,
2013-10-20 01:41:00,54.2,51.6,29.76,NNW,345,0.0,0.0,91,0.00,,,0.00,0,LWC V2.00 B2112,2013-10-20 05:41:00,
2013-10-20 01:46:00,54.0,51.4,29.76,NNW,345,0.0,0.0,91,0.00,,,0.00,0,LWC V2.00 B2112,2013-10-20 05:46:00,
2013-10-20 01:51:00,53.8,51.2,29.76,NNW,345,0.0,0.0,91,0.00,,,0.00,0,LWC V2.00 B2112,2013-10-20 05:51:00,
2013-10-20 01:56:00,53.7,51.4,29.77,NNW,345,0.0,0.0,92,0.00,,,0.00,0,LWC V2.00 B2112,2013-10-20 05:56:00,
2013-10-20 02:01:00,53.5,51.2,29.76,NNW,346,0.0,0.0,92,0.00,,,0.00,0,LWC V2.00 B2112,2013-10-20 06:01:00,
2013-10-20 02:06:00,53.3,51.0,29.77,NNW,346,0.0,0.0,92,0.00,,,0.00,0,LWC V2.00 B2112,2013-10-20 06:06:00,
2013-10-20 02:11:00,53.2,50.9,29.77,NNW,345,0.0,0.0,92,0.00,,,0.00,0,LWC V2.00 B2112,2013-10-20 06:11:00,
2013-10-20 02:16:00,53.0,50.7,29.77,NNW,346,0.0,0.0,92,0.00,,,0.00,0,LWC V2.00 B2112,2013-10-20 06:16:00,
2013-10-20 02:21:00,52.8,50.5,29.77,NNW,346,0.0,1.0,92,0.00,,,0.00,0,LWC V2.00 B2112,2013-10-20 06:21:00,
2013-10-20 02:26:00,52.7,50.4,29.77,NNW,346,0.0,1.0,92,0.00,,,0.00,0,LWC V2.00 B2112,2013-10-20 06:26:00,
2013-10-20 02:31:00,52.7,50.7,29.77,North,355,0.0,2.0,93,0.00,,,0.00,0,LWC V2.00 B2112,2013-10-20 06:31:00,
2013-10-20 02:36:00,52.7,50.4,29.78,North,355,0.0,1.0,92,0.00,,,0.00,0,LWC V2.00 B2112,2013-10-20 06:36:00,
2013-10-20 02:41:00,52.7,50.1,29.78,North,355,0.0,1.0,91,0.00,,,0.00,0,LWC V2.00 B2112,2013-10-20 06:41:00,
2013-10-20 02:46:00,52.7,49.8,29.78,North,355,1.0,2.0,90,0.00,,,0.00,0,LWC V2.00 B2112,2013-10-20 06:46:00,
2013-10-20 02:51:00,52.8,49.6,29.79,North,355,0.0,0.0,89,0.00,,,0.00,0,LWC V2.00 B2112,2013-10-20 06:51:00,
2013-10-20 02:56:00,52.9,49.7,29.79,North,355,0.0,1.0,89,0.00,,,0.00,0,LWC V2.00 B2112,2013-10-20 06:56:00,
2013-10-20 03:01:00,52.9,49.4,29.79,North,355,0.0,1.0,88,0.00,,,0.00,0,LWC V2.00 B2112,2013-10-20 07:01:00,
2013-10-20 03:06:00,52.9,49.1,29.79,North,355,0.0,0.0,87,0.00,,,0.00,0,LWC V2.00 B2112,2013-10-20 07:06:00,
2013-10-20 03:11:00,52.9,49.1,29.79,North,355,0.0,0.0,87,0.00,,,0.00,0,LWC V2.00 B2112,2013-10-20 07:11:00,
2013-10-20 03:16:00,52.8,48.4,29.79,North,351,0.0,2.0,85,0.00,,,0.00,0,LWC V2.00 B2112,2013-10-20 07:16:00,
2013-10-20 03:21:00,52.7,48.0,29.79,North,351,0.0,2.0,84,0.00,,,0.00,0,LWC V2.00 B2112,2013-10-20 07:21:00,
2013-10-20 03:26:00,52.6,47.9,29.79,North,351,0.0,1.0,84,0.00,,,0.00,0,LWC V2.00 B2112,2013-10-20 07:26:00,
2013-10-20 03:31:00,52.4,47.7,29.79,North,351,0.0,2.0,84,0.00,,,0.00,0,LWC V2.00 B2112,2013-10-20 07:31:00,
2013-10-20 03:36:00,52.3,47.3,29.79,North,351,0.0,1.0,83,0.00,,,0.00,0,LWC V2.00 B2112,2013-10-20 07:36:00,
2013-10-20 03:41:00,52.1,46.4,29.79,NNW,331,0.0,1.0,81,0.00,,,0.00,0,LWC V2.00 B2112,2013-10-20 07:41:00,
2013-10-20 03:46:00,52.0,46.4,29.79,NNW,331,0.0,2.0,81,0.00,,,0.00,0,LWC V2.00 B2112,2013-10-20 07:46:00,
2013-10-20 03:51:00,51.9,45.9,29.79,North,355,0.0,0.0,80,0.00,,,0.00,0,LWC V2.00 B2112,2013-10-20 07:51:00,
2013-10-20 03:56:00,51.7,45.7,29.80,North,355,0.0,1.0,80,0.00,,,0.00,0,LWC V2.00 B2112,2013-10-20 07:56:00,
2013-10-20 04:01:00,51.5,45.5,29.80,NNW,336,0.0,3.0,80,0.00,,,0.00,0,LWC V2.00 B2112,2013-10-20 08:01:00,
2013-10-20 04:06:00,51.3,45.3,29.80,NNW,336,0.0,1.0,80,0.00,,,0.00,0,LWC V2.00 B2112,2013-10-20 08:06:00,
2013-10-20 04:11:00,51.2,45.2,29.80,NNW,336,0.0,1.0,80,0.00,,,0.00,0,LWC V2.00 B2112,2013-10-20 08:11:00,
2013-10-20 04:16:00,51.0,44.7,29.80,NNW,336,0.0,2.0,79,0.00,,,0.00,0,LWC V2.00 B2112,2013-10-20 08:16:00,
2013-10-20 04:21:00,50.9,44.6,29.81,West,261,1.0,3.0,79,0.00,,,0.00,0,LWC V2.00 B2112,2013-10-20 08:21:00,
2013-10-20 04:26:00,50.8,44.5,29.81,NNW,348,0.0,1.0,79,0.00,,,0.00,0,LWC V2.00 B2112,2013-10-20 08:26:00,
2013-10-20 04:31:00,50.6,44.3,29.81,NNW,348,0.0,0.0,79,0.00,,,0.00,0,LWC V2.00 B2112,2013-10-20 08:31:00,
2013-10-20 04:35:00,50.5,44.2,29.81,NNW,348,0.0,1.0,79,0.00,,,0.00,0,LWC V2.00 B2112,2013-10-20 08:35:00,
2013-10-20 04:40:00,50.3,44.0,29.82,NNW,348,0.0,1.0,79,0.00,,,0.00,0,LWC V2.00 B2112,2013-10-20 08:40:00,
2013-10-20 04:45:00,50.1,44.2,29.82,NNW,348,1.0,1.0,80,0.00,,,0.00,0,LWC V2.00 B2112,2013-10-20 08:45:00,
2013-10-20 04:50:00,49.9,43.6,29.82,NNW,348,0.0,1.0,79,0.00,,,0.00,0,LWC V2.00 B2112,2013-10-20 08:50:00,
2013-10-20 04:55:00,49.8,43.6,29.82,NNW,348,0.0,0.0,79,0.00,,,0.00,0,LWC V2.00 B2112,2013-10-20 08:55:00,
2013-10-20 05:00:00,49.7,43.5,29.83,NNW,347,0.0,0.0,79,0.00,,,0.00,0,LWC V2.00 B2112,2013-10-20 09:00:00,
2013-10-20 05:05:00,49.6,43.4,29.83,North,355,1.0,1.0,79,0.00,,,0.00,0,LWC V2.00 B2112,2013-10-20 09:05:00,
2013-10-20 05:10:00,49.4,43.2,29.83,North,355,0.0,0.0,79,0.00,,,0.00,0,LWC V2.00 B2112,2013-10-20 09:10:00,
2013-10-20 05:15:00,49.4,43.2,29.83,North,355,0.0,1.0,79,0.00,,,0.00,0,LWC V2.00 B2112,2013-10-20 09:15:00,
2013-10-20 05:20:00,49.2,43.0,29.83,West,280,0.0,4.0,79,0.00,,,0.00,0,LWC V2.00 B2112,2013-10-20 09:20:00,
2013-10-20 05:25:00,49.2,43.3,29.84,West,280,0.0,0.0,80,0.00,,,0.00,0,LWC V2.00 B2112,2013-10-20 09:25:00,
2013-10-20 05:30:00,49.1,42.9,29.84,West,280,0.0,1.0,79,0.00,,,0.00,0,LWC V2.00 B2112,2013-10-20 09:30:00,
2013-10-20 05:35:00,49.0,43.1,29.84,WSW,252,1.0,2.0,80,0.00,,,0.00,0,LWC V2.00 B2112,2013-10-20 09:35:00,
2013-10-20 05:40:00,48.8,42.6,29.84,WSW,252,0.0,1.0,79,0.00,,,0.00,0,LWC V2.00 B2112,2013-10-20 09:40:00,
2013-10-20 05:45:00,48.7,42.8,29.84,WSW,252,0.0,1.0,80,0.00,,,0.00,0,LWC V2.00 B2112,2013-10-20 09:45:00,
2013-10-20 05:50:00,48.6,42.7,29.84,WSW,252,0.0,0.0,80,0.00,,,0.00,0,LWC V2.00 B2112,2013-10-20 09:50:00,
2013-10-20 05:55:00,48.5,42.6,29.84,WSW,252,0.0,0.0,80,0.00,,,0.00,0,LWC V2.00 B2112,2013-10-20 09:55:00,
2013-10-20 06:00:00,48.4,42.5,29.85,WSW,252,0.0,0.0,80,0.00,,,0.00,0,LWC V2.00 B2112,2013-10-20 10:00:00,
2013-10-20 06:05:00,48.3,42.4,29.85,WSW,252,0.0,1.0,80,0.00,,,0.00,0,LWC V2.00 B2112,2013-10-20 10:05:00,
2013-10-20 06:10:00,48.2,42.3,29.85,WSW,254,0.0,2.0,80,0.00,,,0.00,0,LWC V2.00 B2112,2013-10-20 10:10:00,
2013-10-20 06:15:00,48.1,42.2,29.85,WSW,254,0.0,0.0,80,0.00,,,0.00,0,LWC V2.00 B2112,2013-10-20 10:15:00,
2013-10-20 06:20:00,48.0,42.1,29.85,WSW,254,0.0,0.0,80,0.00,,,0.00,0,LWC V2.00 B2112,2013-10-20 10:20:00,
2013-10-20 06:25:00,47.9,42.0,29.86,WSW,254,0.0,0.0,80,0.00,,,0.00,0,LWC V2.00 B2112,2013-10-20 10:25:00,
2013-10-20 06:30:00,47.8,41.9,29.86,WSW,254,0.0,0.0,80,0.00,,,0.00,0,LWC V2.00 B2112,2013-10-20 10:30:00,
2013-10-20 06:35:00,47.7,41.8,29.86,West,277,0.0,2.0,80,0.00,,,0.00,0,LWC V2.00 B2112,2013-10-20 10:35:00,
2013-10-20 06:40:00,47.7,42.2,29.86,West,277,0.0,0.0,81,0.00,,,0.00,0,LWC V2.00 B2112,2013-10-20 10:40:00,
2013-10-20 06:45:00,47.6,42.1,29.87,West,277,0.0,0.0,81,0.00,,,0.00,0,LWC V2.00 B2112,2013-10-20 10:45:00,
2013-10-20 06:50:00,47.6,42.1,29.87,West,277,0.0,0.0,81,0.00,,,0.00,0,LWC V2.00 B2112,2013-10-20 10:50:00,
2013-10-20 06:55:00,47.4,42.2,29.87,West,278,0.0,3.0,82,0.00,,,0.00,0,LWC V2.00 B2112,2013-10-20 10:55:00,
2013-10-20 07:00:00,47.2,42.0,29.87,West,278,0.0,0.0,82,0.00,,,0.00,0,LWC V2.00 B2112,2013-10-20 11:00:00,
2013-10-20 07:05:00,47.1,41.9,29.88,West,278,0.0,0.0,82,0.00,,,0.00,0,LWC V2.00 B2112,2013-10-20 11:05:00,
2013-10-20 07:10:00,47.0,41.8,29.88,West,278,0.0,0.0,82,0.00,,,0.00,0,LWC V2.00 B2112,2013-10-20 11:10:00,
2013-10-20 07:15:00,46.8,41.9,29.88,West,278,0.0,0.0,83,0.00,,,0.00,0,LWC V2.00 B2112,2013-10-20 11:15:00,
2013-10-20 07:20:00,46.7,41.8,29.88,West,278,0.0,0.0,83,0.00,,,0.00,0,LWC V2.00 B2112,2013-10-20 11:20:00,
2013-10-20 07:25:00,46.5,41.6,29.89,West,278,0.0,1.0,83,0.00,,,0.00,0,LWC V2.00 B2112,2013-10-20 11:25:00,
2013-10-20 07:30:00,46.3,41.4,29.89,West,278,0.0,0.0,83,0.00,,,0.00,0,LWC V2.00 B2112,2013-10-20 11:30:00,
2013-10-20 07:35:00,46.2,41.3,29.89,West,278,0.0,0.0,83,0.00,,,0.00,0,LWC V2.00 B2112,2013-10-20 11:35:00,
2013-10-20 07:40:00,46.1,41.5,29.89,West,278,0.0,0.0,84,0.00,,,0.00,0,LWC V2.00 B2112,2013-10-20 11:40:00,
2013-10-20 07:45:00,46.0,41.4,29.89,West,278,0.0,0.0,84,0.00,,,0.00,5,LWC V2.00 B2112,2013-10-20 11:45:00,
2013-10-20 07:50:00,46.0,41.7,29.90,West,278,0.0,0.0,85,0.00,,,0.00,5,LWC V2.00 B2112,2013-10-20 11:50:00,
2013-10-20 07:55:00,46.1,41.8,29.90,West,278,0.0,0.0,85,0.00,,,0.00,5,LWC V2.00 B2112,2013-10-20 11:55:00,
2013-10-20 08:00:00,46.2,41.9,29.90,West,278,0.0,0.0,85,0.00,,,0.00,5,LWC V2.00 B2112,2013-10-20 12:00:00,
2013-10-20 08:05:00,46.3,42.0,29.91,West,278,0.0,0.0,85,0.00,,,0.00,7,LWC V2.00 B2112,2013-10-20 12:05:00,
2013-10-20 08:10:00,46.4,41.8,29.91,West,278,0.0,0.0,84,0.00,,,0.00,7,LWC V2.00 B2112,2013-10-20 12:10:00,
2013-10-20 08:15:00,46.5,41.9,29.91,West,278,0.0,0.0,84,0.00,,,0.00,7,LWC V2.00 B2112,2013-10-20 12:15:00,
2013-10-20 08:20:00,46.7,41.8,29.91,West,278,0.0,2.0,83,0.00,,,0.00,9,LWC V2.00 B2112,2013-10-20 12:20:00,
2013-10-20 08:25:00,47.0,41.8,29.91,NW,309,0.0,1.0,82,0.00,,,0.00,9,LWC V2.00 B2112,2013-10-20 12:25:00,
2013-10-20 08:30:00,47.3,41.8,29.92,NW,309,0.0,0.0,81,0.00,,,0.00,11,LWC V2.00 B2112,2013-10-20 12:30:00,
2013-10-20 08:35:00,47.6,42.1,29.92,North,355,3.0,3.0,81,0.00,,,0.00,12,LWC V2.00 B2112,2013-10-20 12:35:00,
2013-10-20 08:40:00,47.9,42.4,29.92,North,355,0.0,1.0,81,0.00,,,0.00,14,LWC V2.00 B2112,2013-10-20 12:40:00,
2013-10-20 08:45:00,48.2,42.6,29.92,North,355,0.0,0.0,81,0.00,,,0.00,16,LWC V2.00 B2112,2013-10-20 12:45:00,
2013-10-20 08:50:00,48.5,42.6,29.92,North,355,0.0,0.0,80,0.00,,,0.00,18,LWC V2.00 B2112,2013-10-20 12:50:00,
2013-10-20 08:55:00,48.8,42.9,29.92,North,355,0.0,1.0,80,0.00,,,0.00,19,LWC V2.00 B2112,2013-10-20 12:55:00,
2013-10-20 09:00:00,49.4,43.2,29.93,WNW,286,1.0,3.0,79,0.00,,,0.00,21,LWC V2.00 B2112,2013-10-20 13:00:00,
2013-10-20 09:05:00,49.9,43.0,29.92,WNW,296,1.0,2.0,77,0.00,,,0.00,23,LWC V2.00 B2112,2013-10-20 13:05:00,
2013-10-20 09:10:00,50.4,42.8,29.92,NNW,341,0.0,3.0,75,0.00,,,0.00,23,LWC V2.00 B2112,2013-10-20 13:10:00,
2013-10-20 09:15:00,50.7,42.4,29.92,West,281,0.0,2.0,73,0.00,,,0.00,25,LWC V2.00 B2112,2013-10-20 13:15:00,
2013-10-20 09:20:00,51.0,42.7,29.92,West,276,0.0,3.0,73,0.00,,,0.00,25,LWC V2.00 B2112,2013-10-20 13:20:00,
2013-10-20 09:25:00,51.3,42.6,29.92,NNW,329,1.0,1.0,72,0.00,,,0.00,25,LWC V2.00 B2112,2013-10-20 13:25:00,
2013-10-20 09:30:00,51.7,42.2,29.93,North,355,0.0,2.0,70,0.00,,,0.00,25,LWC V2.00 B2112,2013-10-20 13:30:00,
2013-10-20 09:35:00,51.9,42.4,29.93,NW,323,2.0,3.0,70,0.00,,,0.00,25,LWC V2.00 B2112,2013-10-20 13:35:00,
2013-10-20 09:40:00,52.1,42.6,29.93,NW,323,2.0,3.0,70,0.00,,,0.00,23,LWC V2.00 B2112,2013-10-20 13:40:00,
2013-10-20 09:45:00,52.3,42.8,29.93,NW,323,1.0,2.0,70,0.00,,,0.00,23,LWC V2.00 B2112,2013-10-20 13:45:00,
2013-10-20 09:50:00,52.5,42.2,29.93,NW,323,0.0,2.0,68,0.00,,,0.00,23,LWC V2.00 B2112,2013-10-20 13:50:00,
2013-10-20 09:55:00,52.7,42.4,29.94,NW,323,2.0,2.0,68,0.00,,,0.00,23,LWC V2.00 B2112,2013-10-20 13:55:00,
2013-10-20 10:00:00,52.9,42.2,29.94,North,355,2.0,2.0,67,0.00,,,0.00,23,LWC V2.00 B2112,2013-10-20 14:00:00,
2013-10-20 10:05:00,53.0,41.9,29.94,NNW,343,0.0,2.0,66,0.00,,,0.00,23,LWC V2.00 B2112,2013-10-20 14:05:00,
2013-10-20 10:10:00,53.1,42.4,29.94,West,265,2.0,2.0,67,0.00,,,0.00,21,LWC V2.00 B2112,2013-10-20 14:10:00,
2013-10-20 10:15:00,53.3,41.8,29.94,NW,318,0.0,2.0,65,0.00,,,0.00,21,LWC V2.00 B2112,2013-10-20 14:15:00,
2013-10-20 10:20:00,53.5,42.0,29.94,NW,308,1.0,3.0,65,0.00,,,0.00,21,LWC V2.00 B2112,2013-10-20 14:20:00,
2013-10-20 10:25:00,53.7,41.4,29.94,WSW,245,2.0,3.0,63,0.00,,,0.00,23,LWC V2.00 B2112,2013-10-20 14:25:00,
2013-10-20 10:30:00,53.9,42.0,29.94,WSW,245,1.0,3.0,64,0.00,,,0.00,23,LWC V2.00 B2112,2013-10-20 14:30:00,
2013-10-20 10:35:00,54.1,41.8,29.94,West,263,1.0,2.0,63,0.00,,,0.00,21,LWC V2.00 B2112,2013-10-20 14:35:00,
2013-10-20 10:40:00,54.2,42.3,29.94,West,263,1.0,2.0,64,0.00,,,0.00,21,LWC V2.00 B2112,2013-10-20 14:40:00,
2013-10-20 10:45:00,54.4,42.1,29.94,NNW,330,1.0,2.0,63,0.00,,,0.00,21,LWC V2.00 B2112,2013-10-20 14:45:00,
2013-10-20 10:50:00,54.5,42.2,29.94,North,355,0.0,1.0,63,0.00,,,0.00,21,LWC V2.00 B2112,2013-10-20 14:50:00,
2013-10-20 10:55:00,54.8,42.0,29.94,North,355,0.0,2.0,62,0.00,,,0.00,21,LWC V2.00 B2112,2013-10-20 14:55:00,
2013-10-20 11:00:00,55.1,42.3,29.94,North,355,2.0,2.0,62,0.00,,,0.00,21,LWC V2.00 B2112,2013-10-20 15:00:00,
2013-10-20 11:05:00,55.2,41.1,29.94,WNW,284,1.0,4.0,59,0.00,,,0.00,21,LWC V2.00 B2112,2013-10-20 15:05:00,
2013-10-20 11:10:00,55.3,41.2,29.94,WSW,254,1.0,3.0,59,0.00,,,0.00,21,LWC V2.00 B2112,2013-10-20 15:10:00,
2013-10-20 11:15:00,55.4,41.3,29.94,WNW,292,2.0,2.0,59,0.00,,,0.00,21,LWC V2.00 B2112,2013-10-20 15:15:00,
2013-10-20 11:20:00,55.6,41.1,29.94,West,280,2.0,2.0,58,0.00,,,0.00,23,LWC V2.00 B2112,2013-10-20 15:20:00,
2013-10-20 11:25:00,55.7,41.6,29.94,West,280,0.0,1.0,59,0.00,,,0.00,23,LWC V2.00 B2112,2013-10-20 15:25:00,
2013-10-20 11:30:00,55.9,41.8,29.94,NNW,344,1.0,1.0,59,0.00,,,0.00,23,LWC V2.00 B2112,2013-10-20 15:30:00,
2013-10-20 11:35:00,56.0,41.4,29.94,NNW,348,0.0,2.0,58,0.00,,,0.00,23,LWC V2.00 B2112,2013-10-20 15:35:00,
2013-10-20 11:40:00,56.2,41.6,29.94,North,355,1.0,2.0,58,0.00,,,0.00,23,LWC V2.00 B2112,2013-10-20 15:40:00,
2013-10-20 11:45:00,56.4,41.4,29.94,North,355,0.0,1.0,57,0.00,,,0.00,25,LWC V2.00 B2112,2013-10-20 15:45:00,
2013-10-20 11:50:00,56.6,42.0,29.94,West,279,0.0,2.0,58,0.00,,,0.00,23,LWC V2.00 B2112,2013-10-20 15:50:00,
2013-10-20 11:55:00,56.8,41.3,29.94,WNW,290,0.0,2.0,56,0.00,,,0.00,25,LWC V2.00 B2112,2013-10-20 15:55:00,
2013-10-20 12:00:00,57.0,41.0,29.94,NNW,331,2.0,4.0,55,0.00,,,0.00,25,LWC V2.00 B2112,2013-10-20 16:00:00,
2013-10-20 12:05:00,57.0,41.0,29.94,NNW,344,0.0,2.0,55,0.00,,,0.00,25,LWC V2.00 B2112,2013-10-20 16:05:00,
2013-10-20 12:10:00,57.0,41.0,29.94,West,275,0.0,5.0,55,0.00,,,0.00,25,LWC V2.00 B2112,2013-10-20 16:10:00,
2013-10-20 12:15:00,57.1,41.6,29.94,WNW,292,0.0,1.0,56,0.00,,,0.00,25,LWC V2.00 B2112,2013-10-20 16:15:00,
2013-10-20 12:20:00,57.3,41.3,29.94,West,273,0.0,3.0,55,0.00,,,0.00,26,LWC V2.00 B2112,2013-10-20 16:20:00,
2013-10-20 12:25:00,57.5,41.5,29.94,North,355,3.0,3.0,55,0.00,,,0.00,26,LWC V2.00 B2112,2013-10-20 16:25:00,
2013-10-20 12:30:00,57.7,42.1,29.94,WNW,287,1.0,1.0,56,0.00,,,0.00,28,LWC V2.00 B2112,2013-10-20 16:30:00,
2013-10-20 12:35:00,58.0,41.4,29.94,NNW,340,1.0,4.0,54,0.00,,,0.00,30,LWC V2.00 B2112,2013-10-20 16:35:00,
2013-10-20 12:36:00,58.0,41.9,29.94,NNW,340,0.0,1.0,55,0.00,,,0.00,30,LWC V2.00 B2112,2013-10-20 16:36:00,
2013-10-20 12:41:00,58.4,41.8,29.94,NNW,345,2.0,4.0,54,0.00,,,0.00,32,LWC V2.00 B2112,2013-10-20 16:41:00,
2013-10-20 12:46:00,58.5,41.9,29.94,NW,311,0.0,2.0,54,0.00,,,0.00,35,LWC V2.00 B2112,2013-10-20 16:46:00,
2013-10-20 12:51:00,58.8,42.2,29.94,NW,313,0.0,1.0,54,0.00,,,0.00,39,LWC V2.00 B2112,2013-10-20 16:51:00,
2013-10-20 12:56:00,59.1,41.0,29.94,NW,316,3.0,3.0,51,0.00,,,0.00,40,LWC V2.00 B2112,2013-10-20 16:56:00,
2013-10-20 13:01:00,59.2,41.6,29.94,NNW,346,1.0,2.0,52,0.00,,,0.00,44,LWC V2.00 B2112,2013-10-20 17:01:00,
2013-10-20 13:06:00,59.6,42.0,29.94,NNW,338,1.0,3.0,52,0.00,,,0.00,49,LWC V2.00 B2112,2013-10-20 17:06:00,
2013-10-20 13:11:00,59.7,41.5,29.93,WSW,254,2.0,2.0,51,0.00,,,0.00,47,LWC V2.00 B2112,2013-10-20 17:11:00,
2013-10-20 13:16:00,59.8,41.6,29.93,West,277,3.0,3.0,51,0.00,,,0.00,47,LWC V2.00 B2112,2013-10-20 17:16:00,
2013-10-20 13:21:00,60.0,41.3,29.93,NW,314,1.0,5.0,50,0.00,,,0.00,49,LWC V2.00 B2112,2013-10-20 17:21:00,
2013-10-20 13:26:00,60.2,40.4,29.93,NNW,327,0.0,2.0,48,0.00,,,0.00,49,LWC V2.00 B2112,2013-10-20 17:26:00,
2013-10-20 13:31:00,60.2,41.0,29.93,NW,320,1.0,3.0,49,0.00,,,0.00,49,LWC V2.00 B2112,2013-10-20 17:31:00,
2013-10-20 13:36:00,60.4,41.2,29.93,North,355,2.0,3.0,49,0.00,,,0.00,49,LWC V2.00 B2112,2013-10-20 17:36:00,
2013-10-20 13:41:00,60.6,41.3,29.93,WSW,254,4.0,5.0,49,0.00,,,0.00,49,LWC V2.00 B2112,2013-10-20 17:41:00,
2013-10-20 13:46:00,60.7,40.3,29.93,WNW,287,1.0,3.0,47,0.00,,,0.00,49,LWC V2.00 B2112,2013-10-20 17:46:00,
2013-10-20 13:51:00,60.7,40.9,29.93,West,273,0.0,4.0,48,0.00,,,0.00,47,LWC V2.00 B2112,2013-10-20 17:51:00,
2013-10-20 13:56:00,60.8,41.0,29.92,WNW,295,1.0,2.0,48,0.00,,,0.00,47,LWC V2.00 B2112,2013-10-20 17:56:00,
2013-10-20 14:01:00,60.9,40.5,29.93,NNW,340,0.0,3.0,47,0.00,,,0.00,46,LWC V2.00 B2112,2013-10-20 18:01:00,
2013-10-20 14:06:00,61.1,40.7,29.93,West,270,0.0,4.0,47,0.00,,,0.00,46,LWC V2.00 B2112,2013-10-20 18:06:00,
2013-10-20 14:11:00,61.1,40.2,29.93,West,277,0.0,1.0,46,0.00,,,0.00,42,LWC V2.00 B2112,2013-10-20 18:11:00,
2013-10-20 14:16:00,61.2,39.7,29.93,SW,227,0.0,3.0,45,0.00,,,0.00,40,LWC V2.00 B2112,2013-10-20 18:16:00,
2013-10-20 14:21:00,61.1,39.6,29.93,North,355,1.0,3.0,45,0.00,,,0.00,39,LWC V2.00 B2112,2013-10-20 18:21:00,
2013-10-20 14:25:00,61.2,40.3,29.93,North,355,0.0,2.0,46,0.00,,,0.00,37,LWC V2.00 B2112,2013-10-20 18:25:00,
2013-10-20 14:30:00,61.2,39.1,29.92,North,355,0.0,1.0,44,0.00,,,0.00,35,LWC V2.00 B2112,2013-10-20 18:30:00,
2013-10-20 14:35:00,61.3,39.2,29.93,NNW,329,1.0,2.0,44,0.00,,,0.00,33,LWC V2.00 B2112,2013-10-20 18:35:00,
2013-10-20 14:40:00,61.4,38.7,29.92,NW,315,0.0,2.0,43,0.00,,,0.00,32,LWC V2.00 B2112,2013-10-20 18:40:00,
2013-10-20 14:45:00,61.4,38.7,29.93,North,355,0.0,5.0,43,0.00,,,0.00,30,LWC V2.00 B2112,2013-10-20 18:45:00,
2013-10-20 14:50:00,61.4,38.7,29.93,WNW,288,1.0,3.0,43,0.00,,,0.00,30,LWC V2.00 B2112,2013-10-20 18:50:00,
2013-10-20 14:55:00,61.4,38.1,29.92,WSW,238,2.0,2.0,42,0.00,,,0.00,28,LWC V2.00 B2112,2013-10-20 18:55:00,
2013-10-20 15:00:00,61.4,38.7,29.92,WSW,258,2.0,4.0,43,0.00,,,0.00,28,LWC V2.00 B2112,2013-10-20 19:00:00,
2013-10-20 15:05:00,61.5,37.6,29.93,West,268,2.0,5.0,41,0.00,,,0.00,28,LWC V2.00 B2112,2013-10-20 19:05:00,
2013-10-20 15:10:00,61.5,37.6,29.93,WNW,283,2.0,2.0,41,0.00,,,0.00,26,LWC V2.00 B2112,2013-10-20 19:10:00,
2013-10-20 15:15:00,61.5,37.6,29.93,NNW,348,2.0,3.0,41,0.00,,,0.00,28,LWC V2.00 B2112,2013-10-20 19:15:00,
2013-10-20 15:20:00,61.5,38.2,29.93,NNW,347,0.0,1.0,42,0.00,,,0.00,26,LWC V2.00 B2112,2013-10-20 19:20:00,
2013-10-20 15:25:00,61.6,38.3,29.93,NW,323,0.0,3.0,42,0.00,,,0.00,26,LWC V2.00 B2112,2013-10-20 19:25:00,
2013-10-20 15:30:00,61.6,38.3,29.93,NW,323,1.0,2.0,42,0.00,,,0.00,28,LWC V2.00 B2112,2013-10-20 19:30:00,
2013-10-20 15:35:00,61.6,38.3,29.93,NNW,340,1.0,2.0,42,0.00,,,0.00,26,LWC V2.00 B2112,2013-10-20 19:35:00,
2013-10-20 15:40:00,61.6,37.7,29.93,WNW,285,0.0,3.0,41,0.00,,,0.00,25,LWC V2.00 B2112,2013-10-20 19:40:00,
2013-10-20 15:45:00,61.6,38.3,29.93,WNW,290,1.0,2.0,42,0.00,,,0.00,23,LWC V2.00 B2112,2013-10-20 19:45:00,
2013-10-20 15:50:00,61.5,38.2,29.93,NNW,335,1.0,2.0,42,0.00,,,0.00,23,LWC V2.00 B2112,2013-10-20 19:50:00,
2013-10-20 15:55:00,61.5,38.8,29.93,NNW,333,1.0,1.0,43,0.00,,,0.00,21,LWC V2.00 B2112,2013-10-20 19:55:00,
2013-10-20 16:00:00,61.4,37.5,29.93,West,276,0.0,2.0,41,0.00,,,0.00,19,LWC V2.00 B2112,2013-10-20 20:00:00,
2013-10-20 16:05:00,61.4,36.2,29.93,West,277,1.0,3.0,39,0.00,,,0.00,19,LWC V2.00 B2112,2013-10-20 20:05:00,
2013-10-20 16:10:00,61.4,36.2,29.93,West,277,0.0,3.0,39,0.00,,,0.00,18,LWC V2.00 B2112,2013-10-20 20:10:00,
2013-10-20 16:15:00,61.3,36.8,29.93,West,277,1.0,1.0,40,0.00,,,0.00,16,LWC V2.00 B2112,2013-10-20 20:15:00,
2013-10-20 16:20:00,61.2,37.9,29.93,North,355,1.0,1.0,42,0.00,,,0.00,16,LWC V2.00 B2112,2013-10-20 20:20:00,
2013-10-20 16:25:00,61.1,36.0,29.94,NNW,348,0.0,1.0,39,0.00,,,0.00,14,LWC V2.00 B2112,2013-10-20 20:25:00,
2013-10-20 16:30:00,61.0,35.9,29.94,NW,319,1.0,3.0,39,0.00,,,0.00,14,LWC V2.00 B2112,2013-10-20 20:30:00,
2013-10-20 16:35:00,61.0,36.5,29.94,NNW,336,0.0,1.0,40,0.00,,,0.00,12,LWC V2.00 B2112,2013-10-20 20:35:00,
2013-10-20 16:40:00,60.9,36.4,29.94,WNW,294,0.0,4.0,40,0.00,,,0.00,12,LWC V2.00 B2112,2013-10-20 20:40:00,
2013-10-20 16:45:00,60.9,37.0,29.94,WNW,291,0.0,0.0,41,0.00,,,0.00,12,LWC V2.00 B2112,2013-10-20 20:45:00,
2013-10-20 16:50:00,60.8,37.6,29.94,North,355,0.0,3.0,42,0.00,,,0.00,12,LWC V2.00 B2112,2013-10-20 20:50:00,
2013-10-20 16:55:00,60.7,37.5,29.94,NNW,346,0.0,0.0,42,0.00,,,0.00,11,LWC V2.00 B2112,2013-10-20 20:55:00,
2013-10-20 17:00:00,60.7,37.5,29.94,NNW,348,0.0,1.0,42,0.00,,,0.00,9,LWC V2.00 B2112,2013-10-20 21:00:00,
2013-10-20 17:05:00,60.6,38.0,29.94,North,355,1.0,1.0,43,0.00,,,0.00,7,LWC V2.00 B2112,2013-10-20 21:05:00,
2013-10-20 17:10:00,60.5,38.5,29.94,NW,317,1.0,1.0,44,0.00,,,0.00,7,LWC V2.00 B2112,2013-10-20 21:10:00,
2013-10-20 17:15:00,60.4,38.4,29.94,NW,319,0.0,2.0,44,0.00,,,0.00,7,LWC V2.00 B2112,2013-10-20 21:15:00,
2013-10-20 17:20:00,60.3,38.9,29.94,NNW,331,0.0,0.0,45,0.00,,,0.00,5,LWC V2.00 B2112,2013-10-20 21:20:00,
2013-10-20 17:25:00,60.2,38.2,29.95,NNW,331,0.0,1.0,44,0.00,,,0.00,5,LWC V2.00 B2112,2013-10-20 21:25:00,
2013-10-20 17:30:00,60.0,38.0,29.95,NNW,331,0.0,0.0,44,0.00,,,0.00,5,LWC V2.00 B2112,2013-10-20 21:30:00,
2013-10-20 17:35:00,59.9,38.5,29.95,North,355,1.0,4.0,45,0.00,,,0.00,0,LWC V2.00 B2112,2013-10-20 21:35:00,
2013-10-20 17:40:00,59.7,37.8,29.95,North,355,1.0,2.0,44,0.00,,,0.00,0,LWC V2.00 B2112,2013-10-20 21:40:00,
2013-10-20 17:45:00,59.5,38.1,29.96,NW,307,0.0,1.0,45,0.00,,,0.00,0,LWC V2.00 B2112,2013-10-20 21:45:00,
2013-10-20 17:50:00,59.4,38.1,29.96,NW,308,0.0,1.0,45,0.00,,,0.00,0,LWC V2.00 B2112,2013-10-20 21:50:00,
2013-10-20 17:55:00,59.2,37.9,29.96,NW,307,1.0,3.0,45,0.00,,,0.00,0,LWC V2.00 B2112,2013-10-20 21:55:00,
2013-10-20 18:00:00,59.1,38.3,29.96,WNW,302,1.0,2.0,46,0.00,,,0.00,0,LWC V2.00 B2112,2013-10-20 22:00:00,
2013-10-20 18:05:00,58.9,37.6,29.96,WNW,296,0.0,2.0,45,0.00,,,0.00,0,LWC V2.00 B2112,2013-10-20 22:05:00,
2013-10-20 18:10:00,58.7,38.5,29.96,NW,326,0.0,1.0,47,0.00,,,0.00,0,LWC V2.00 B2112,2013-10-20 22:10:00,
2013-10-20 18:15:00,58.4,37.7,29.97,NW,326,0.0,1.0,46,0.00,,,0.00,0,LWC V2.00 B2112,2013-10-20 22:15:00,
2013-10-20 18:20:00,58.3,38.2,29.97,NW,326,0.0,0.0,47,0.00,,,0.00,0,LWC V2.00 B2112,2013-10-20 22:20:00,
2013-10-20 18:25:00,58.0,38.4,29.97,NW,326,0.0,0.0,48,0.00,,,0.00,0,LWC V2.00 B2112,2013-10-20 22:25:00,
2013-10-20 18:30:00,57.7,38.7,29.98,NW,326,0.0,0.0,49,0.00,,,0.00,0,LWC V2.00 B2112,2013-10-20 22:30:00,
2013-10-20 18:35:00,57.3,38.3,29.98,NW,326,0.0,1.0,49,0.00,,,0.00,0,LWC V2.00 B2112,2013-10-20 22:35:00,
2013-10-20 18:40:00,57.0,38.5,29.98,NW,326,0.0,0.0,50,0.00,,,0.00,0,LWC V2.00 B2112,2013-10-20 22:40:00,
2013-10-20 18:45:00,56.8,38.9,29.98,NW,326,0.0,0.0,51,0.00,,,0.00,0,LWC V2.00 B2112,2013-10-20 22:45:00,
2013-10-20 18:50:00,56.4,39.0,29.98,NW,326,0.0,0.0,52,0.00,,,0.00,0,LWC V2.00 B2112,2013-10-20 22:50:00,
2013-10-20 18:55:00,56.0,39.1,29.99,NW,326,0.0,0.0,53,0.00,,,0.00,0,LWC V2.00 B2112,2013-10-20 22:55:00,
2013-10-20 19:00:00,55.6,39.7,29.99,NW,326,0.0,0.0,55,0.00,,,0.00,0,LWC V2.00 B2112,2013-10-20 23:00:00,
2013-10-20 19:05:00,55.2,40.2,29.99,NW,326,0.0,0.0,57,0.00,,,0.00,0,LWC V2.00 B2112,2013-10-20 23:05:00,
2013-10-20 19:10:00,54.9,40.4,29.99,NW,326,0.0,0.0,58,0.00,,,0.00,0,LWC V2.00 B2112,2013-10-20 23:10:00,
2013-10-20 19:15:00,54.6,40.1,29.99,NW,326,0.0,0.0,58,0.00,,,0.00,0,LWC V2.00 B2112,2013-10-20 23:15:00,
2013-10-20 19:20:00,54.4,40.4,29.99,NW,326,0.0,0.0,59,0.00,,,0.00,0,LWC V2.00 B2112,2013-10-20 23:20:00,
2013-10-20 19:25:00,54.1,41.0,30.00,NW,326,0.0,0.0,61,0.00,,,0.00,0,LWC V2.00 B2112,2013-10-20 23:25:00,
2013-10-20 19:30:00,53.6,40.5,30.00,NW,326,0.0,0.0,61,0.00,,,0.00,0,LWC V2.00 B2112,2013-10-20 23:30:00,
2013-10-20 19:35:00,53.1,39.6,30.00,NW,326,0.0,0.0,60,0.00,,,0.00,0,LWC V2.00 B2112,2013-10-20 23:35:00,
2013-10-20 19:40:00,52.5,40.3,30.00,NW,326,0.0,0.0,63,0.00,,,0.00,0,LWC V2.00 B2112,2013-10-20 23:40:00,
2013-10-20 19:45:00,52.2,40.4,30.00,NW,326,0.0,0.0,64,0.00,,,0.00,0,LWC V2.00 B2112,2013-10-20 23:45:00,
2013-10-20 19:50:00,51.9,40.9,30.00,NW,326,0.0,0.0,66,0.00,,,0.00,0,LWC V2.00 B2112,2013-10-20 23:50:00,
2013-10-20 19:55:00,51.6,41.0,30.00,NW,326,0.0,0.0,67,0.00,,,0.00,0,LWC V2.00 B2112,2013-10-20 23:55:00,
2013-10-20 20:00:00,51.2,40.6,30.00,NW,326,0.0,0.0,67,0.00,,,0.00,0,LWC V2.00 B2112,2013-10-21 00:00:00,
2013-10-20 20:05:00,50.8,39.9,30.01,NW,326,0.0,0.0,66,0.00,,,0.00,0,LWC V2.00 B2112,2013-10-21 00:05:00,
2013-10-20 20:10:00,50.5,40.3,30.01,NW,326,0.0,0.0,68,0.00,,,0.00,0,LWC V2.00 B2112,2013-10-21 00:10:00,
2013-10-20 20:15:00,50.1,40.3,30.01,NW,326,0.0,0.0,69,0.00,,,0.00,0,LWC V2.00 B2112,2013-10-21 00:15:00,
2013-10-20 20:20:00,49.7,40.3,30.01,NW,326,0.0,0.0,70,0.00,,,0.00,0,LWC V2.00 B2112,2013-10-21 00:20:00,
2013-10-20 20:25:00,49.4,40.0,30.02,NW,326,0.0,0.0,70,0.00,,,0.00,0,LWC V2.00 B2112,2013-10-21 00:25:00,
2013-10-20 20:30:00,49.1,39.7,30.02,NW,326,0.0,0.0,70,0.00,,,0.00,0,LWC V2.00 B2112,2013-10-21 00:30:00,
2013-10-20 20:35:00,48.8,39.8,30.02,NW,326,0.0,0.0,71,0.00,,,0.00,0,LWC V2.00 B2112,2013-10-21 00:35:00,
2013-10-20 20:40:00,48.6,39.6,30.02,NW,326,0.0,0.0,71,0.00,,,0.00,0,LWC V2.00 B2112,2013-10-21 00:40:00,
2013-10-20 20:45:00,48.3,39.7,30.02,NW,326,0.0,0.0,72,0.00,,,0.00,0,LWC V2.00 B2112,2013-10-21 00:45:00,
2013-10-20 20:50:00,48.1,39.9,30.02,NW,326,0.0,0.0,73,0.00,,,0.00,0,LWC V2.00 B2112,2013-10-21 00:50:00,
2013-10-20 20:55:00,47.9,40.4,30.02,NW,326,0.0,0.0,75,0.00,,,0.00,0,LWC V2.00 B2112,2013-10-21 00:55:00,
2013-10-20 21:00:00,47.7,40.2,30.02,NW,326,0.0,0.0,75,0.00,,,0.00,0,LWC V2.00 B2112,2013-10-21 01:00:00,
2013-10-20 21:05:00,47.6,40.1,30.02,NW,326,0.0,0.0,75,0.00,,,0.00,0,LWC V2.00 B2112,2013-10-21 01:05:00,
2013-10-20 21:10:00,47.4,39.9,30.02,NW,326,0.0,0.0,75,0.00,,,0.00,0,LWC V2.00 B2112,2013-10-21 01:10:00,
2013-10-20 21:15:00,47.2,39.7,30.03,NW,326,0.0,0.0,75,0.00,,,0.00,0,LWC V2.00 B2112,2013-10-21 01:15:00,
2013-10-20 21:20:00,47.0,39.8,30.03,NW,326,0.0,0.0,76,0.00,,,0.00,0,LWC V2.00 B2112,2013-10-21 01:20:00,
2013-10-20 21:25:00,46.9,39.7,30.03,NW,326,0.0,0.0,76,0.00,,,0.00,0,LWC V2.00 B2112,2013-10-21 01:25:00,
2013-10-20 21:30:00,46.7,40.2,30.03,NW,326,0.0,0.0,78,0.00,,,0.00,0,LWC V2.00 B2112,2013-10-21 01:30:00,
2013-10-20 21:35:00,46.6,40.1,30.03,NW,326,0.0,0.0,78,0.00,,,0.00,0,LWC V2.00 B2112,2013-10-21 01:35:00,
2013-10-20 21:40:00,46.5,40.3,30.03,NW,326,0.0,0.0,79,0.00,,,0.00,0,LWC V2.00 B2112,2013-10-21 01:40:00,
2013-10-20 21:45:00,46.3,40.1,30.03,NW,326,0.0,0.0,79,0.00,,,0.00,0,LWC V2.00 B2112,2013-10-21 01:45:00,
2013-10-20 21:50:00,46.2,40.1,30.04,NW,326,0.0,0.0,79,0.00,,,0.00,0,LWC V2.00 B2112,2013-10-21 01:50:00,
2013-10-20 21:55:00,46.1,40.0,30.04,NW,326,0.0,0.0,79,0.00,,,0.00,0,LWC V2.00 B2112,2013-10-21 01:55:00,
2013-10-20 22:00:00,45.9,40.1,30.04,NW,326,0.0,0.0,80,0.00,,,0.00,0,LWC V2.00 B2112,2013-10-21 02:00:00,
2013-10-20 22:05:00,45.8,40.0,30.04,NW,326,0.0,0.0,80,0.00,,,0.00,0,LWC V2.00 B2112,2013-10-21 02:05:00,
2013-10-20 22:10:00,45.6,39.8,30.05,NW,326,0.0,0.0,80,0.00,,,0.00,0,LWC V2.00 B2112,2013-10-21 02:10:00,
2013-10-20 22:15:00,45.5,40.0,30.04,NW,326,0.0,0.0,81,0.00,,,0.00,0,LWC V2.00 B2112,2013-10-21 02:15:00,
2013-10-20 22:20:00,45.4,39.9,30.05,NW,326,0.0,0.0,81,0.00,,,0.00,0,LWC V2.00 B2112,2013-10-21 02:20:00,
2013-10-20 22:25:00,45.2,39.7,30.04,NW,326,0.0,0.0,81,0.00,,,0.00,0,LWC V2.00 B2112,2013-10-21 02:25:00,
2013-10-20 22:30:00,45.1,39.9,30.05,NW,326,0.0,0.0,82,0.00,,,0.00,0,LWC V2.00 B2112,2013-10-21 02:30:00,
2013-10-20 22:35:00,45.0,40.2,30.04,NW,326,0.0,0.0,83,0.00,,,0.00,0,LWC V2.00 B2112,2013-10-21 02:35:00,
2013-10-20 22:40:00,44.9,40.1,30.04,NW,326,0.0,0.0,83,0.00,,,0.00,0,LWC V2.00 B2112,2013-10-21 02:40:00,
2013-10-20 22:45:00,44.7,39.9,30.04,NW,326,0.0,0.0,83,0.00,,,0.00,0,LWC V2.00 B2112,2013-10-21 02:45:00,
2013-10-20 22:50:00,44.6,40.1,30.04,NW,326,0.0,0.0,84,0.00,,,0.00,0,LWC V2.00 B2112,2013-10-21 02:50:00,
2013-10-20 22:55:00,44.4,39.9,30.04,NW,326,0.0,0.0,84,0.00,,,0.00,0,LWC V2.00 B2112,2013-10-21 02:55:00,
2013-10-20 23:00:00,44.3,39.8,30.05,NW,326,0.0,0.0,84,0.00,,,0.00,0,LWC V2.00 B2112,2013-10-21 03:00:00,
2013-10-20 23:05:00,44.2,40.0,30.05,NW,326,0.0,0.0,85,0.00,,,0.00,0,LWC V2.00 B2112,2013-10-21 03:05:00,
2013-10-20 23:10:00,44.0,39.8,30.05,NW,326,0.0,0.0,85,0.00,,,0.00,0,LWC V2.00 B2112,2013-10-21 03:10:00,
2013-10-20 23:15:00,43.8,39.6,30.05,NW,326,0.0,0.0,85,0.00,,,0.00,0,LWC V2.00 B2112,2013-10-21 03:15:00,
2013-10-20 23:20:00,43.8,39.9,30.05,NW,326,0.0,0.0,86,0.00,,,0.00,0,LWC V2.00 B2112,2013-10-21 03:20:00,
2013-10-20 23:25:00,43.6,39.7,30.05,NW,326,0.0,0.0,86,0.00,,,0.00,0,LWC V2.00 B2112,2013-10-21 03:25:00,
2013-10-20 23:30:00,43.4,39.5,30.05,NW,326,0.0,0.0,86,0.00,,,0.00,0,LWC V2.00 B2112,2013-10-21 03:30:00,
2013-10-20 23:35:00,43.3,39.4,30.05,NW,326,0.0,0.0,86,0.00,,,0.00,0,LWC V2.00 B2112,2013-10-21 03:35:00,
2013-10-20 23:40:00,43.2,39.6,30.05,NW,326,0.0,0.0,87,0.00,,,0.00,0,LWC V2.00 B2112,2013-10-21 03:40:00,
2013-10-20 23:45:00,43.1,39.5,30.05,NW,326,0.0,0.0,87,0.00,,,0.00,0,LWC V2.00 B2112,2013-10-21 03:45:00,
2013-10-20 23:49:00,43.0,39.4,30.05,NW,326,0.0,0.0,87,0.00,,,0.00,0,LWC V2.00 B2112,2013-10-21 03:49:00,
2013-10-20 23:54:00,42.9,39.6,30.05,NW,326,0.0,0.0,88,0.00,,,0.00,0,LWC V2.00 B2112,2013-10-21 03:54:00,
2013-10-20 23:59:00,42.8,39.5,30.05,NW,326,0.0,0.0,88,0.00,,,0.00,0,LWC V2.00 B2112,2013-10-21 03:59:00,